Weather History for KCQM - January, 2014

Change the Weather History Date:

Sunday, January 26, 2014

  Actual Average Record
Temperature  
Mean Temperature -6 °F -  
Max Temperature 1 °F 17 °F 42 °F (2006)
Min Temperature -16 °F 0 °F -45 °F (1997)
Degree Days  
Heating Degree Days 72    
Moisture  
Dew Point -11 °F    
Average Humidity 74    
Maximum Humidity 85    
Minimum Humidity 65    
Precipitation  
Precipitation 0.01 in - - ()
Sea Level Pressure  
Sea Level Pressure 29.50 in    
Wind  
Wind Speed 3 mph (NW)    
Max Wind Speed 18 mph    
Max Gust Speed 25 mph    
Visibility 4 miles    
Events Snow    
Averages and records for this station are not official NWS values.
T = Trace of Precipitation, MM = Missing Value Source: NWS Daily Summary

Daily Weather History Graph

Daily Weather History Graph

Search for Another Location

Airport or City:

Trip Planner

Search our weather history database for the weather conditions in past years. The results will help you decide how hot, cold, wet, or windy it might be!

Date:

Astronomy

Jan. 26, 2014 Rise Set
Actual Time 7:45 AM CST 5:02 PM CST
Civil Twilight 7:11 AM CST 5:35 PM CST
Nautical Twilight 6:33 AM CST 6:13 PM CST
Astronomical Twilight 5:57 AM CST 6:49 PM CST
Moon 3:24 AM CST (1/26) 12:49 PM CST (1/26)
Length of Visible Light 10h 24m
Length of Day
9h 16m
Waning Crescent, 23% of the Moon is Illuminated
Jan 26
Waning Crescent
Jan 30
New
Feb 6
First Quarter
Feb 14
Full
Feb 22
Last Quarter

Hourly Weather History & Observations

Time (CST) Temp. Windchill Dew Point Humidity Pressure Visibility Wind Dir Wind Speed Gust Speed Precip Events Conditions
12:14 AM -5.8 °F - -14.8 °F 65% 29.50 in 10.0 mi Calm Calm - N/A   Overcast
12:35 AM -5.8 °F - -13.0 °F 71% 29.48 in 7.0 mi Calm Calm - N/A Snow Light Snow
12:54 AM -5.8 °F - -13.0 °F 71% 29.47 in 10.0 mi Calm Calm - N/A Snow Light Snow
1:15 AM -5.8 °F - -11.2 °F 77% 29.46 in 10.0 mi Calm Calm - N/A   Overcast
1:34 AM -5.8 °F - -11.2 °F 77% 29.46 in 10.0 mi Calm Calm - N/A Snow Light Snow
1:55 AM -5.8 °F - -11.2 °F 77% 29.46 in 10.0 mi Calm Calm - N/A Snow Light Snow
2:14 AM -5.8 °F - -11.2 °F 77% 29.44 in 10.0 mi Calm Calm - N/A Snow Light Snow
2:35 AM -5.8 °F - -11.2 °F 77% 29.42 in 10.0 mi Calm Calm - N/A Snow Light Snow
2:55 AM -5.8 °F - -11.2 °F 77% 29.42 in 10.0 mi Calm Calm - N/A   Overcast
3:14 AM -4.0 °F - -11.2 °F 71% 29.42 in 10.0 mi Calm Calm - N/A   Overcast
3:35 AM -4.0 °F - -11.2 °F 71% 29.41 in 10.0 mi Calm Calm - N/A Snow Light Snow
3:54 AM -4.0 °F - -9.4 °F 78% 29.40 in 7.0 mi Calm Calm - N/A Snow Light Snow
4:15 AM -4.0 °F - -9.4 °F 78% 29.39 in 4.0 mi Calm Calm - N/A Snow Light Snow
4:35 AM -4.0 °F -12.4 °F -9.4 °F 78% 29.37 in 2.0 mi East 3.5 mph - N/A Snow Light Snow
4:54 AM -4.0 °F - -9.4 °F 78% 29.37 in 2.5 mi Calm Calm - N/A Snow Light Snow
5:14 AM -4.0 °F - -9.4 °F 78% 29.36 in 2.0 mi Calm Calm - N/A Snow Light Snow
5:35 AM -4.0 °F - -9.4 °F 78% 29.34 in 2.0 mi Calm Calm - N/A Snow Light Snow
5:54 AM -4.0 °F - -9.4 °F 78% 29.33 in 1.8 mi Calm Calm - N/A Snow Light Snow
6:15 AM -4.0 °F - -9.4 °F 78% 29.33 in 1.5 mi Calm Calm - N/A Snow Light Snow
6:35 AM -4.0 °F - -9.4 °F 78% 29.34 in 1.2 mi Calm Calm - N/A Snow Light Snow
6:54 AM -4.0 °F - -7.6 °F 85% 29.34 in 1.5 mi Calm Calm - N/A Snow Light Snow
7:15 AM -4.0 °F - -7.6 °F 85% 29.32 in 1.8 mi Calm Calm - N/A Snow Light Snow
7:34 AM -4.0 °F - -7.6 °F 85% 29.32 in 2.5 mi Calm Calm - 0.01 in Snow Light Snow
7:55 AM -4.0 °F - -7.6 °F 85% 29.30 in 0.8 mi Calm Calm - 0.01 in Snow Light Snow
8:14 AM -4.0 °F - -7.6 °F 85% 29.30 in 1.0 mi Calm Calm - N/A Snow Light Snow
8:35 AM -4.0 °F - -7.6 °F 85% 29.29 in 2.0 mi Calm Calm - N/A Snow Light Snow
8:55 AM -4.0 °F - -7.6 °F 85% 29.29 in 1.5 mi Calm Calm - N/A Snow Light Snow
9:14 AM -2.2 °F - -7.6 °F 78% 29.28 in 1.8 mi Calm Calm - N/A Snow Light Snow
9:34 AM -2.2 °F - -7.6 °F 78% 29.28 in 1.8 mi Calm Calm - N/A Snow Light Snow
9:55 AM -2.2 °F - -7.6 °F 78% 29.28 in 1.0 mi Calm Calm - N/A Snow Light Snow
10:15 AM -2.2 °F - -7.6 °F 78% 29.29 in 1.8 mi Calm Calm - N/A Snow Light Snow
10:34 AM -2.2 °F -10.4 °F -7.6 °F 78% 29.29 in 1.5 mi NNW 3.5 mph - N/A Snow Light Snow
10:55 AM -0.4 °F -8.3 °F -7.6 °F 72% 29.29 in 2.0 mi North 3.5 mph - N/A Snow Light Snow
11:15 AM -0.4 °F -10.4 °F -7.6 °F 72% 29.30 in 3.0 mi North 4.6 mph - N/A Snow Light Snow
11:35 AM -0.4 °F -13.4 °F -5.8 °F 78% 29.31 in 2.5 mi NNW 6.9 mph - N/A Snow Light Snow
11:55 AM -0.4 °F -15.7 °F -7.6 °F 72% 29.32 in 4.0 mi WNW 9.2 mph - N/A   Haze
12:14 PM 1.4 °F -13.5 °F -5.8 °F 72% 29.32 in 3.0 mi NW 9.2 mph - N/A   Haze
12:35 PM 1.4 °F -13.5 °F -5.8 °F 72% 29.33 in 2.0 mi NNW 9.2 mph - N/A   Haze
12:55 PM -0.4 °F -15.7 °F -5.8 °F 78% 29.34 in 1.2 mi NW 9.2 mph 17.3 mph N/A Snow Light Snow
1:14 PM -0.4 °F -12.0 °F -7.6 °F 72% 29.36 in 2.5 mi NW 5.8 mph - N/A   Haze
1:35 PM 1.4 °F -11.3 °F -7.6 °F 66% 29.37 in 4.0 mi NNW 6.9 mph - N/A   Haze
1:55 PM -0.4 °F -12.0 °F -9.4 °F 66% 29.39 in 4.0 mi NNW 5.8 mph 19.6 mph N/A   Haze
2:14 PM -0.4 °F -15.7 °F -9.4 °F 66% 29.41 in 3.0 mi NNW 9.2 mph 18.4 mph N/A Snow Light Snow
2:35 PM -0.4 °F -15.7 °F -9.4 °F 66% 29.43 in 3.0 mi NW 9.2 mph 19.6 mph N/A Snow Light Snow
2:54 PM -0.4 °F -16.7 °F -9.4 °F 66% 29.46 in 4.0 mi NNW 10.4 mph 20.7 mph N/A   Haze
3:15 PM -0.4 °F -19.9 °F -9.4 °F 66% 29.48 in 4.0 mi NNW 15.0 mph 20.7 mph N/A   Haze
3:35 PM -0.4 °F -19.9 °F -9.4 °F 66% 29.51 in 4.0 mi NNW 15.0 mph 20.7 mph N/A   Haze
3:55 PM -2.2 °F -19.9 °F -11.2 °F 66% 29.53 in 7.0 mi NNW 11.5 mph 16.1 mph N/A   Mostly Cloudy
4:15 PM -2.2 °F -18.0 °F -9.4 °F 71% 29.56 in 7.0 mi NW 9.2 mph 16.1 mph N/A   Mostly Cloudy
4:35 PM -2.2 °F -18.0 °F -9.4 °F 71% 29.58 in 3.0 mi NW 9.2 mph - N/A Snow Light Snow
4:54 PM -2.2 °F -18.0 °F -9.4 °F 71% 29.60 in 2.0 mi NW 9.2 mph - N/A Snow Light Snow
5:15 PM -2.2 °F -20.7 °F -9.4 °F 71% 29.62 in 2.5 mi NW 12.7 mph 18.4 mph N/A Snow Light Snow
5:35 PM -4.0 °F -23.0 °F -9.4 °F 78% 29.64 in 3.0 mi NW 12.7 mph 23.0 mph N/A Snow Light Snow
5:54 PM -5.8 °F -22.4 °F -11.2 °F 77% 29.66 in 7.0 mi NW 9.2 mph 20.7 mph N/A   Mostly Cloudy
6:14 PM -5.8 °F -22.4 °F -11.2 °F 77% 29.68 in 7.0 mi NW 9.2 mph 18.4 mph N/A   Scattered Clouds
6:35 PM -5.8 °F -24.4 °F -13.0 °F 71% 29.70 in 10.0 mi NW 11.5 mph 17.3 mph N/A   Scattered Clouds
6:55 PM -5.8 °F -21.2 °F -14.8 °F 65% 29.72 in 5.0 mi NW 8.1 mph 20.7 mph N/A   Haze
7:14 PM -5.8 °F -24.4 °F -13.0 °F 71% 29.73 in 4.0 mi NW 11.5 mph 17.3 mph N/A Snow Light Snow
7:35 PM -5.8 °F -19.9 °F -11.2 °F 77% 29.74 in 2.5 mi NW 6.9 mph - N/A Snow Light Snow
7:54 PM -5.8 °F -26.0 °F -13.0 °F 71% 29.76 in 3.0 mi NW 13.8 mph 23.0 mph N/A Snow Light Snow
8:15 PM -7.6 °F -27.5 °F -13.0 °F 77% 29.77 in 3.0 mi WNW 12.7 mph 20.7 mph N/A   Haze
8:35 PM -7.6 °F -24.6 °F -14.8 °F 71% 29.78 in 3.0 mi WNW 9.2 mph 20.7 mph N/A   Haze
8:54 PM -7.6 °F -28.3 °F -14.8 °F 71% 29.79 in 2.0 mi NW 13.8 mph 21.9 mph N/A Snow Light Snow
9:15 PM -7.6 °F -27.5 °F -14.8 °F 71% 29.81 in 7.0 mi WNW 12.7 mph 17.3 mph N/A   Overcast
9:35 PM -7.6 °F -25.7 °F -14.8 °F 71% 29.82 in 3.0 mi WNW 10.4 mph - N/A Snow Light Snow
9:54 PM -9.4 °F -26.8 °F -14.8 °F 77% 29.83 in 1.8 mi NW 9.2 mph 21.9 mph N/A Snow Light Snow
10:15 PM -9.4 °F -27.9 °F -16.6 °F 71% 29.84 in 3.0 mi NW 10.4 mph 23.0 mph N/A Snow Light Snow
10:35 PM -11.2 °F -35.8 °F -18.4 °F 70% 29.86 in 1.2 mi WNW 18.4 mph 25.3 mph N/A Snow Light Snow
10:54 PM -13.0 °F -36.8 °F -20.2 °F 70% 29.87 in 2.5 mi WNW 16.1 mph - N/A Snow Light Snow
11:15 PM -14.8 °F -36.6 °F -20.2 °F 77% 29.89 in 5.0 mi WNW 12.7 mph 19.6 mph N/A   Haze
11:35 PM -14.8 °F -36.6 °F -22.0 °F 70% 29.90 in 4.0 mi WNW 12.7 mph 20.7 mph N/A   Haze
11:54 PM -16.6 °F -38.9 °F -22.0 °F 76% 29.91 in 4.0 mi WNW 12.7 mph 18.4 mph N/A   Haze